Regional Weather Roundup
Issued by NWS Kansas City/Pleasant Hill, MO

Home | Current Version | Previous Version | Graphics & Text | Print | Product List | Glossary Off
Versions: 1 2 3 4 5 6 7 8 9 10 11 12 13 14 15 16 17 18 19 20 21 22 23 24 25 26 27 28 29 30 31 32 33 34 35 36 37 38 39 40 41 42 43 44 45 46 47 48 49 50

411
ASUS43 KEAX 210310
RWREAX

WEATHER ROUNDUP FOR EASTERN KANSAS AND NORTHWEST MISSOURI
NATIONAL WEATHER SERVICE KANSAS CITY/PLEASANT HILL MO
900 PM CST FRI JAN 20 2017

KSZ040-057-103>105-MOZ028-029-037-043-210400-
...KANSAS CITY METROPOLITAN AREA...

CITY           SKY/WX    TMP DP  RH WIND       PRES   REMARKS
K.C. INTL      MOCLDY    46  43  89 SE9       29.45F
K.C. DOWNTOWN  CLOUDY    48  46  93 S5        29.46S
LEES SUMMIT    CLEAR     47  45  93 S5        29.48S
OLATHE - IXD   PTCLDY    46  44  93 SE8       29.46F
OLATHE - OJC   PTCLDY    43  43 100 SE5       29.46F
LAWRENCE       CLEAR     43  43 100 E6        29.45F FOG

$$

MOZ001>008-011>017-020>025-030>033-038>040-044>046-053-054-210400-
...NORTHERN AND CENTRAL MISSOURI...

CITY           SKY/WX    TMP DP  RH WIND       PRES   REMARKS
ST. JOSEPH     CLOUDY    45  45 100 SW3       29.45S FOG
MOSBY          CLOUDY    50  48  93 CALM      29.47S
WARRENSBURG    CLEAR     45  43  93 SE5       29.48S
WHITEMAN AFB   CLEAR     43  43 100 S6        29.47S
CLINTON        CLEAR     45  41  87 CALM      29.50S
SEDALIA        PTCLDY    48  46  93 SE5       29.50S
WARSAW         NOT AVBL
CHILLICOTHE      N/A     48  47  96 SE5       29.49S
KIRKSVILLE     CLOUDY    47  47 100 SE9       29.51F FOG

$$

MOZ041-047>049-056>058-063>065-088>090-097-210400-
...EASTERN AND SOUTHERN MISSOURI...

CITY           SKY/WX    TMP DP  RH WIND       PRES   REMARKS
ST. LOUIS INTL PTCLDY    54  49  83 SE10      29.58S
SPIRIT OF STL  CLEAR     43  42  97 E3        29.56S FOG
COLUMBIA       CLEAR     49  47  93 E9        29.51S
JEFFERSON CITY CLEAR     47  45  93 E7        29.52R
ROLLA          CLEAR     53  48  83 S10       29.54R
OSAGE BEACH    CLEAR     52  46  80 S7        29.54R
SPRINGFIELD    CLEAR     53  39  59 S10       29.54R
BRANSON        CLEAR     57  39  51 S13       29.59R
JOPLIN         CLEAR     51  39  63 S9        29.52R
WEST PLAINS    CLEAR     55  47  74 S9        29.61R

$$

IAZ060-094-KSZ022-034>040-054-083-096-NEZ052-066-093-210400-
...KANSAS...SOUTHEAST NEBRASKA AND IOWA...

CITY           SKY/WX    TMP DP  RH WIND       PRES   REMARKS
TOPEKA         FOG       45  41  86 CALM      29.45S VSB 1/2
MANHATTAN      CLOUDY    45  44  97 SW5       29.42F
EMPORIA        CLOUDY    39  38  96 NW8       29.44S FOG     WCI  33
CHANUTE        CLEAR     40  36  86 W5        29.48R
WICHITA        PTCLDY    34  34 100 CALM      29.44S
OMAHA          CLOUDY    41  38  89 SE8       29.45S
LINCOLN        CLOUDY    42  42 100 SE5       29.43F
FALLS CITY     FOG       44  44 100 SE6       29.43F VSB 1/2
LAMONI         FOG       44  44 100 E6        29.47S VSB 1/4
DES MOINES     DRZL/FOG  41  40  96 E9        29.49F VSB 1/2

$$





USA.gov is the U.S. government's official web portal to all federal, state and local government web resources and services.